Location: Catenanuova
(37.5690°N, 14.6870°E)
Time: 10:18:44
(UTC+02:00)

Hubble Space Telescope - Pass Details

Date: 29 May 2024
Orbit: 511 x 514 km, 28.5° (Epoch: 13 June)

Event Time Altitude Azimuth Distance (km) Brightness Sun altitude
Rises 20:48:40 0° 239° (WSW) 2,609 4.6 -6.5°
Reaches altitude 10° 20:51:19 10° 223° (SW) 1,723 3.5 -6.9°
Maximum altitude 20:54:18 20° 174° (S) 1,206 2.2 -7.4°
Enters shadow 20:57:14 10° 125° (SE) 1,710 2.6 -7.9°
